Location: Potenza
(40.6330°N, 15.8000°E)
Time: 05:02:15
(UTC+01:00)

ISS - Visible Passes

Search period start: 23 January 2019 00:00
Search period end: 02 February 2019 00:00
Orbit: 404 x 411 km, 51.6° (Epoch: 23 January)

Date Brightness Start Highest point End Pass type
(mag) Time Alt. Az. Time Alt. Az. Time Alt. Az.
23 Jan -3.8 18:37:16 10° WSW 18:40:33 79° NW 18:41:04 60° NE visible
24 Jan -3.5 17:46:02 10° SW 17:49:14 53° SE 17:52:03 13° ENE visible
24 Jan -1.3 19:23:13 10° W 19:24:46 19° NW 19:24:46 19° NW visible
25 Jan -2.6 18:31:24 10° W 18:34:28 35° NNW 18:35:40 26° NNE visible
26 Jan -3.4 17:39:45 10° WSW 17:43:00 59° NNW 17:46:17 10° NE visible
26 Jan -1.1 19:17:55 10° NW 19:19:13 15° NNW 19:19:13 15° NNW visible
27 Jan -1.8 18:25:53 10° WNW 18:28:27 21° NNW 18:30:00 15° NNE visible
28 Jan -2.3 17:33:57 10° W 17:36:52 29° NNW 17:39:49 10° NE visible
28 Jan -1.0 19:12:37 10° NW 19:13:26 12° NNW 19:13:26 12° NNW visible
29 Jan -1.4 18:20:33 10° NW 18:22:31 15° NNW 18:24:08 11° NNE visible
30 Jan -1.0 19:06:54 10° NNW 19:07:31 11° NNW 19:07:31 11° NNW visible
31 Jan -1.3 18:15:07 10° NNW 18:16:38 12° N 18:18:08 10° NNE visible
01 Feb -1.3 19:00:34 10° NNW 19:01:34 13° N 19:01:34 13° N visible
